This is the latest recevied weather packets stored in our database for station/object KC3VCX. If no packets are shown the sender has not sent any weather packets the latest 10 day(s).
| Time | Temp. | Humidity | Pressure | Rain* | Wind** | Luminosity | Snow |
|---|---|---|---|---|---|---|---|
| 1777813104 | 5° C | 68% | 1019.7 hPa | 0 mm | - | 339 W/m² | - |
| 1777812802 | 5° C | 71% | 1019.6 hPa | 0 mm | - | 322 W/m² | - |
| 1777812498 | 5° C | 69% | 1019.6 hPa | 0 mm | - | 306 W/m² | - |
| 1777812197 | 5° C | 69% | 1019.5 hPa | 0 mm | - | 289 W/m² | - |
| 1777811894 | 5° C | 71% | 1019.4 hPa | 0 mm | - | 271 W/m² | - |
| 1777811593 | 4.44° C | 72% | 1019.3 hPa | 0 mm | - | 255 W/m² | - |
| 1777811288 | 3.89° C | 72% | 1019.3 hPa | 0 mm | - | 240 W/m² | - |
| 1777810985 | 3.89° C | 73% | 1019.4 hPa | 0 mm | - | 225 W/m² | - |
| 1777810682 | 3.89° C | 73% | 1019.4 hPa | 0 mm | - | 211 W/m² | - |
| 1777810378 | 3.89° C | 74% | 1019.2 hPa | 0 mm | - | 193 W/m² | - |
| 1777810074 | 3.33° C | 76% | 1019.3 hPa | 0 mm | - | 179 W/m² | - |
| 1777809773 | 3.33° C | 76% | 1019.1 hPa | 0 mm | - | 163 W/m² | - |
| 1777809470 | 2.78° C | 77% | 1019.2 hPa | 0 mm | - | 60 W/m² | - |
| 1777809168 | 2.78° C | 78% | 1019.1 hPa | 0 mm | - | 125 W/m² | - |
| 1777808865 | 2.78° C | 78% | 1019.1 hPa | 0 mm | - | 105 W/m² | - |
| 1777808561 | 2.78° C | 80% | 1019.1 hPa | 0 mm | - | 73 W/m² | - |
| 1777808258 | 2.22° C | 81% | 1019.2 hPa | 0 mm | - | 65 W/m² | - |
| 1777807957 | 2.22° C | 81% | 1018.9 hPa | 0 mm | - | 60 W/m² | - |
| 1777807654 | 1.67° C | 82% | 1019 hPa | 0 mm | - | 56 W/m² | - |
| 1777807352 | 1.67° C | 84% | 1019 hPa | 0 mm | - | 48 W/m² | - |
| 1777807047 | 1.11° C | 85% | 1018.9 hPa | 0 mm | - | 43 W/m² | - |
| 1777806744 | 0.56° C | 86% | 1018.8 hPa | 0 mm | - | 38 W/m² | - |
| 1777806440 | 0.56° C | 87% | 1018.8 hPa | 0 mm | - | 34 W/m² | - |
| 1777806137 | 0° C | 88% | 1018.7 hPa | 0 mm | - | 26 W/m² | - |
| 1777805834 | 0° C | 88% | 1018.6 hPa | 0 mm | - | 23 W/m² | - |
* Rain latest hour (hover to see other rain measurements)
** Current wind speed in m/s (hover to see current wind gust speed)